DW4379 Weather Reports


time (UTC)temp
C
wind
direction
speed
KPH
gust
KPH
rain 1hr
cm
rain 24hr
cm
rain mn
cm
humidity
%
barometer
mb
20260506051003 7 360 0.0 1.6 0.00 0.00 0.00 97 1009.4
20260506050717 7 3 0.0 1.6 0.00 0.00 0.00 97 1009.4
20260506045003 7 1 0.0 3.2 0.00 0.00 0.00 97 1009.5
20260506044503 7 360 1.6 4.8 0.00 0.00 0.00 97 1009.4
20260506044217 7 360 0.0 4.8 0.00 0.00 0.00 97 1009.6
20260506043719 7 358 0.0 4.8 0.00 0.00 0.00 97 1009.7
20260506043003 7 355 0.0 6.4 0.00 0.00 0.00 97 1009.7
20260506042503 7 359 1.6 6.4 0.00 0.00 0.00 97 1009.5
20260506042003 7 360 1.6 4.8 0.00 0.00 0.00 97 1009.4
20260506041718 7 356 1.6 4.8 0.00 0.00 0.00 97 1009.3
20260506041003 7 357 1.6 6.4 0.00 0.00 0.00 97 1009.6
20260506040718 7 358 1.6 6.4 0.00 0.00 0.00 97 1009.5
20260506040006 7 350 0.0 3.2 0.00 0.00 0.00 97 1009.8
20260506035503 7 339 0.0 1.6 0.00 0.00 0.00 97 1009.9
20260506035004 7 353 0.0 1.6 0.00 0.00 0.00 97 1010.3
20260506034503 8 357 0.0 3.2 0.00 0.00 0.00 97 1010.0
20260506034003 8 346 0.0 3.2 0.00 0.00 0.00 97 1009.7
20260506033503 8 334 0.0 3.2 0.00 0.00 0.00 97 1009.3
20260506033217 8 326 0.0 3.2 0.00 0.00 0.00 97 1009.3
20260506032503 8 317 0.0 3.2 0.00 0.00 0.00 97 1009.3
20260506032003 8 343 0.0 6.4 0.00 0.00 0.00 97 1009.1
20260506031503 8 348 1.6 8.0 0.00 0.00 0.00 97 1008.9
20260506031003 8 349 1.6 8.0 0.00 0.00 0.00 97 1008.8
20260506030503 8 321 0.0 1.6 0.00 0.00 0.00 97 1008.9
20260506030003 8 321 0.0 3.2 0.00 0.00 0.00 96 1009.0
20260506025503 8 317 0.0 3.2 0.00 0.00 0.00 97 1009.0
20260506025004 8 337 0.0 3.2 0.00 0.00 0.00 97 1008.6
20260506024503 8 358 0.0 3.2 0.00 0.00 0.00 97 1008.3
20260506024003 8 358 1.6 3.2 0.00 0.00 0.00 97 1008.1
20260506023503 9 360 1.6 3.2 0.00 0.00 0.00 97 1008.1
20260506023217 8 8 1.6 4.8 0.00 0.00 0.00 97 1008.3
20260506022503 9 12 1.6 4.8 0.00 0.00 0.00 97 1008.2
20260506022003 9 1 0.0 1.6 0.00 0.00 0.00 97 1008.7
20260506021503 9 0 0.0 0.0 0.00 0.00 0.00 97 1009.0
20260506021003 9 20 1.6 4.8 0.00 0.00 0.00 97 1008.6
20260506020503 9 20 1.6 4.8 0.00 0.00 0.00 97 1007.9
20260506020003 8 30 0.0 1.6 0.00 0.00 0.00 97 1009.1
20260506015503 8 10 0.0 3.2 0.00 0.00 0.00 97 1008.5
20260506015003 8 13 1.6 3.2 0.00 0.00 0.00 97 1007.9
20260506014503 8 15 0.0 3.2 0.00 0.00 0.00 97 1007.5
20260506014003 8 1 0.0 3.2 0.00 0.00 0.00 97 1007.6
20260506013717 8 357 0.0 3.2 0.00 0.00 0.00 97 1007.4
20260506013003 8 15 0.0 3.2 0.00 0.00 0.00 97 1007.6
20260506012503 8 23 0.0 6.4 0.00 0.00 0.00 97 1007.6
20260506012003 8 17 0.0 6.4 0.00 0.00 0.00 97 1007.7
20260506011503 8 355 0.0 1.6 0.00 0.00 0.00 97 1007.8
20260506011003 8 55 1.6 4.8 0.00 0.00 0.00 97 1007.8
20260506010504 9 57 1.6 4.8 0.00 0.00 0.00 97 1007.3
20260506010003 9 0 0.0 0.0 0.00 0.00 0.00 97 1008.6
20260506005503 8 1 0.0 3.2 0.00 0.00 0.00 97 1008.2
20260506005003 8 1 0.0 3.2 0.00 0.00 0.00 97 1007.6
20260506004504 8 2 0.0 3.2 0.00 0.00 0.00 97 1006.9
20260506004003 8 17 0.0 4.8 0.00 0.00 0.00 97 1006.6
20260506003717 8 12 1.6 4.8 0.00 0.00 0.00 97 1006.6
20260506003218 8 17 1.6 8.0 0.00 0.00 0.00 96 1006.7
20260506002717 8 37 1.6 8.0 0.00 0.00 0.00 97 1006.8
20260506002218 8 42 1.6 6.4 0.00 0.00 0.00 97 1006.8
20260506001503 8 29 1.6 6.4 0.00 0.00 0.00 96 1007.5
20260506001003 8 11 1.6 4.8 0.00 0.00 0.00 97 1007.1
20260506000503 8 4 1.6 4.8 0.00 0.00 0.00 97 1007.3
20260506000004 9 5 1.6 8.0 0.00 0.00 0.00 97 1007.8
20260505235503 9 1 1.6 8.0 0.00 0.00 0.00 97 1007.5
20260505235003 9 360 0.0 4.8 0.00 0.00 0.00 96 1007.6
20260505234719 9 4 0.0 3.2 0.00 0.00 0.00 96 1007.4
20260505234003 9 2 1.6 4.8 0.00 0.00 0.00 97 1007.4
20260505233503 8 8 1.6 4.8 0.00 0.00 0.00 96 1007.4
20260505233004 9 14 1.6 4.8 0.00 0.00 0.00 96 1007.4
20260505232503 9 9 1.6 4.8 0.00 0.00 0.00 96 1007.5
20260505232003 9 30 0.0 4.8 0.00 0.00 0.00 96 1007.3
20260505231503 9 42 0.0 4.8 0.00 0.00 0.00 96 1007.3
20260505231003 9 16 1.6 8.0 0.00 0.00 0.00 96 1007.6
20260505230504 8 9 1.6 9.7 0.00 0.00 0.00 96 1007.1
20260505230003 8 10 1.6 9.7 0.00 0.00 0.00 96 1007.2
20260505225504 8 11 1.6 8.0 0.00 0.00 0.00 96 1007.2
20260505225217 8 6 1.6 8.0 0.00 0.00 0.00 96 1007.2
20260505224503 8 1 3.2 8.0 0.00 0.00 0.00 96 1007.6
20260505224003 8 3 3.2 6.4 0.00 0.00 0.00 96 1007.6
20260505223503 9 9 3.2 11.3 0.00 0.00 0.00 96 1007.7
20260505223003 9 12 3.2 11.3 0.00 0.00 0.00 96 1007.7
20260505222503 9 6 3.2 8.0 0.00 0.00 0.00 96 1007.9
20260505222217 9 9 3.2 12.9 0.00 0.00 0.00 96 1007.9
20260505221503 9 10 3.2 12.9 0.00 0.00 0.00 96 1007.4
20260505221003 10 351 1.6 8.0 0.00 0.00 0.00 96 1007.7
20260505220503 10 346 1.6 8.0 0.00 0.00 0.00 96 1008.1
20260505220003 10 342 1.6 8.0 0.00 0.00 0.00 96 1008.0
20260505215503 10 353 3.2 9.7 0.00 0.00 0.00 96 1007.8
20260505215003 10 356 3.2 9.7 0.00 0.00 0.00 96 1007.4
20260505214503 10 355 3.2 16.1 0.00 0.00 0.00 96 1007.3
20260505214003 10 2 4.8 16.1 0.00 0.00 0.00 96 1007.5
20260505213503 10 10 4.8 16.1 0.00 0.00 0.00 96 1007.3
20260505213003 10 7 3.2 9.7 0.00 0.00 0.00 96 1007.2
20260505212503 10 356 1.6 6.4 0.00 0.00 0.00 96 1007.2
20260505212003 10 360 1.6 6.4 0.00 0.00 0.00 96 1007.4
20260505211503 10 5 1.6 6.4 0.00 0.00 0.00 96 1007.5
20260505211003 10 360 1.6 6.4 0.00 0.00 0.00 96 1007.5
20260505210503 10 347 1.6 6.4 0.00 0.00 0.00 96 1007.8
20260505210003 10 331 0.0 3.2 0.00 0.00 0.00 96 1008.1
20260505205503 10 351 0.0 1.6 0.00 0.00 0.00 96 1008.2
20260505205003 10 331 0.0 1.6 0.00 0.00 0.00 96 1008.3
20260505204503 10 323 0.0 1.6 0.00 0.00 0.00 95 1008.1
20260505204218 10 326 0.0 1.6 0.00 0.00 0.00 95 1008.1
20260505203503 10 315 1.6 3.2 0.00 0.00 0.00 95 1008.1
20260505203003 10 307 1.6 4.8 0.00 0.00 0.00 95 1008.0
20260505202503 10 306 1.6 4.8 0.00 0.00 0.00 95 1007.9
20260505202003 10 313 1.6 4.8 0.00 0.00 0.00 94 1008.0
20260505201503 11 329 1.6 4.8 0.00 0.00 0.00 95 1007.8
20260505201218 11 327 1.6 4.8 0.00 0.00 0.00 95 1007.8
20260505200503 11 313 1.6 3.2 0.00 0.00 0.00 95 1007.9
20260505200218 11 307 1.6 3.2 0.00 0.00 0.00 95 1007.8
20260505195503 11 315 1.6 3.2 0.00 0.00 0.00 95 1007.6
20260505195003 11 333 1.6 8.0 0.00 0.00 0.00 95 1007.7
20260505194717 11 338 0.0 8.0 0.00 0.00 0.00 95 1007.8
20260505194003 10 0 0.0 0.0 0.00 0.00 0.00 95 1007.4
20260505193717 11 0 0.0 0.0 0.00 0.00 0.00 95 1007.5
20260505193003 11 0 0.0 0.0 0.00 0.00 0.00 96 1007.7
20260505192503 11 0 0.0 0.0 0.00 0.00 0.00 96 1007.8
20260505192218 11 306 0.0 1.6 0.00 0.00 0.00 96 1007.7
20260505191503 11 310 0.0 1.6 0.00 0.00 0.00 96 1007.6
20260505191003 11 313 0.0 1.6 0.00 0.00 0.00 96 1007.7
20260505190503 11 0 0.0 0.0 0.00 0.00 0.00 96 1007.6
20260505190004 11 0 0.0 0.0 0.00 0.00 0.00 96 1007.5
20260505185503 11 0 0.0 0.0 0.00 0.00 0.00 96 1007.5
20260505185003 11 0 0.0 0.0 0.00 0.00 0.00 96 1007.4
20260505184503 11 0 0.0 0.0 0.00 0.00 0.00 96 1007.5
20260505184003 10 0 0.0 0.0 0.00 0.00 0.00 96 1007.4
20260505183503 11 344 0.0 1.6 0.00 0.00 0.00 96 1007.4
20260505183003 11 343 0.0 1.6 0.00 0.00 0.00 96 1007.5
20260505182503 11 349 0.0 1.6 0.00 0.00 0.00 96 1007.5
20260505182217 11 1 0.0 1.6 0.00 0.00 0.00 96 1007.5
20260505181503 11 1 0.0 3.2 0.00 0.00 0.00 96 1007.4
20260505181003 11 1 0.0 3.2 0.00 0.00 0.00 96 1007.4
20260505180503 10 2 0.0 3.2 0.00 0.00 0.00 96 1007.5
20260505180004 10 2 0.0 1.6 0.00 0.00 0.00 96 1007.5
20260505175503 10 4 0.0 3.2 0.00 0.00 0.00 96 1007.5
20260505175003 10 9 0.0 3.2 0.00 0.00 0.00 96 1007.6
20260505174503 10 35 0.0 3.2 0.00 0.00 0.00 96 1007.6
20260505174003 10 14 1.6 6.4 0.00 0.00 0.00 96 1007.6
20260505173503 10 2 1.6 6.4 0.00 0.00 0.00 96 1007.6
20260505173003 10 357 1.6 4.8 0.00 0.00 0.00 96 1007.5
20260505172503 10 356 1.6 4.8 0.00 0.00 0.00 96 1007.3
20260505172003 10 18 1.6 8.0 0.00 0.00 0.00 96 1007.3
20260505171503 10 23 3.2 8.0 0.00 0.00 0.00 96 1007.3
20260505171003 10 36 3.2 11.3 0.00 0.00 0.00 96 1007.1
20260505170718 10 39 1.6 11.3 0.00 0.00 0.00 96 1007.2
20260505170217 10 26 3.2 11.3 0.00 0.00 0.00 96 1007.1
20260505165503 10 22 3.2 9.7 0.00 0.00 0.00 96 1007.1
20260505165003 10 27 3.2 11.3 0.00 0.00 0.00 96 1007.1
20260505164504 10 17 3.2 11.3 0.00 0.00 0.00 97 1007.1
20260505164003 10 357 1.6 8.0 0.00 0.00 0.00 96 1007.3
20260505163503 10 357 3.2 8.0 0.00 0.00 0.00 96 1007.3
20260505163003 10 6 1.6 6.4 0.00 0.00 0.00 96 1007.3
20260505162503 10 24 1.6 6.4 0.00 0.00 0.00 96 1007.3
20260505162217 10 29 3.2 6.4 0.00 0.00 0.00 96 1007.4
20260505161503 10 14 1.6 8.0 0.00 0.00 0.00 96 1007.7
20260505161003 10 14 3.2 9.7 0.00 0.00 0.00 96 1007.6
20260505160503 10 20 1.6 9.7 0.00 0.00 0.00 95 1007.9
20260505153003 11 319 1.6 8.0 0.00 0.00 0.00 94 1008.2
20260505152504 12 340 1.6 4.8 0.00 0.00 0.00 97 1007.9
20260505152003 12 358 0.0 4.8 0.00 0.00 0.00 97 1007.7
20260505151503 12 357 1.6 9.7 0.00 0.00 0.00 97 1007.7
20260505151218 12 357 1.6 9.7 0.00 0.00 0.00 97 1007.8
20260505150717 12 353 1.6 9.7 0.00 0.00 0.00 96 1007.6
20260505125003 13 0 0.0 0.0 0.00 0.00 0.00 97 1007.4
20260505124503 13 0 0.0 0.0 0.00 0.00 0.00 97 1007.5
20260505124003 13 0 0.0 0.0 0.00 0.00 0.00 97 1007.5
20260505123503 13 0 0.0 0.0 0.00 0.00 0.00 97 1007.5
20260505123217 13 0 0.0 0.0 0.00 0.00 0.00 97 1007.4
20260505122503 13 0 0.0 0.0 0.00 0.00 0.00 97 1007.4
20260505122004 13 0 0.0 0.0 0.00 0.00 0.00 97 1007.3
20260505121718 13 0 0.0 0.0 0.00 0.00 0.00 97 1007.2
20260505121003 13 0 0.0 0.0 0.00 0.00 0.00 97 1007.1
20260505120503 13 0 0.0 0.0 0.00 0.00 0.00 97 1007.0
20260505120004 13 0 0.0 0.0 0.00 0.00 0.00 97 1007.1
20260505115503 13 0 0.0 0.0 0.00 0.00 0.00 97 1006.9
20260505115003 13 0 0.0 0.0 0.00 0.00 0.00 97 1006.8
20260505114718 13 0 0.0 0.0 0.00 0.00 0.00 97 1006.6
20260505114003 13 0 0.0 0.0 0.00 0.00 0.00 97 1006.3
20260505113503 13 0 0.0 0.0 0.00 0.00 0.00 96 1006.2
20260505113003 13 0 0.0 0.0 0.00 0.00 0.00 96 1006.1
20260505112504 13 0 0.0 0.0 0.00 0.00 0.00 96 1006.0
20260505112217 13 0 0.0 0.0 0.00 0.00 0.00 96 1006.0
20260505111503 13 0 0.0 0.0 0.00 0.00 0.00 96 1005.7
20260505111217 13 0 0.0 0.0 0.00 0.00 0.00 96 1005.7
20260505110503 13 0 0.0 0.0 0.00 0.00 0.00 96 1005.7
20260505102004 13 107 1.6 9.7 0.00 0.00 0.00 96 1004.9
20260505101503 13 114 1.6 6.4 0.00 0.00 0.00 96 1005.1
20260505101004 13 115 1.6 6.4 0.00 0.00 0.00 96 1004.9
20260505100503 13 121 3.2 6.4 0.00 0.00 0.00 96 1004.9
20260505100003 13 123 3.2 6.4 0.00 0.00 0.00 96 1004.8
20260505095503 13 114 3.2 9.7 0.00 0.00 0.00 96 1004.6
20260505095003 13 112 3.2 9.7 0.00 0.00 0.00 96 1004.5
20260505094717 13 113 3.2 9.7 0.00 0.00 0.00 96 1004.7
20260505094003 13 107 1.6 4.8 0.00 0.00 0.00 96 1005.0
20260505093503 13 115 1.6 4.8 0.00 0.00 0.00 96 1005.0
20260505093003 13 147 1.6 4.8 0.00 0.00 0.00 96 1004.8
20260505092717 13 134 1.6 6.4 0.00 0.00 0.00 96 1004.7
20260505092003 13 127 1.6 6.4 0.00 0.00 0.00 96 1004.9
20260505091503 13 121 1.6 6.4 0.00 0.00 0.00 96 1004.9
20260505091218 13 125 1.6 6.4 0.00 0.00 0.00 95 1005.3
20260505090503 13 174 0.0 4.8 0.00 0.00 0.00 95 1005.6
20260505090004 13 169 1.6 4.8 0.00 0.00 0.00 95 1005.6
20260505085503 13 166 1.6 3.2 0.00 0.00 0.00 95 1005.9
20260505085004 13 175 0.0 3.2 0.00 0.00 0.00 95 1006.0
20260505084717 13 214 0.0 1.6 0.00 0.00 0.00 95 1006.3
20260505084003 13 227 0.0 3.2 0.00 0.00 0.00 95 1006.1
20260505083503 13 200 0.0 3.2 0.00 0.00 0.00 95 1006.0
20260505083003 13 160 0.0 4.8 0.00 0.00 0.00 95 1006.1
20260505082503 13 142 0.0 4.8 0.00 0.00 0.00 95 1005.8
20260505082003 13 129 1.6 3.2 0.00 0.00 0.00 95 1005.7
20260505081503 13 125 1.6 4.8 0.00 0.00 0.00 95 1005.6
20260505081003 13 119 1.6 8.0 0.00 0.00 0.00 94 1005.6
20260505080503 13 101 1.6 8.0 0.00 0.00 0.00 94 1005.7
20260505080004 13 84 0.0 3.2 0.00 0.00 0.00 94 1006.3
20260505075503 13 92 0.0 3.2 0.00 0.00 0.00 94 1006.4
20260505075003 13 98 0.0 3.2 0.00 0.00 0.00 94 1006.7
20260505074503 13 117 0.0 3.2 0.00 0.00 0.00 94 1006.4
20260505074003 13 108 0.0 4.8 0.00 0.00 0.00 93 1006.4
20260505073503 13 103 0.0 4.8 0.00 0.00 0.00 93 1006.6
20260505073003 13 113 0.0 3.2 0.00 0.00 0.00 93 1007.0
20260505072503 13 91 0.0 4.8 0.00 0.00 0.00 92 1006.8
20260505072003 13 69 1.6 6.4 0.00 0.00 0.00 92 1006.8
20260505071503 13 68 1.6 6.4 0.00 0.00 0.00 90 1006.5
20260505071003 14 63 0.0 4.8 0.00 0.00 0.00 89 1006.9
20260505070503 14 354 0.0 8.0 0.00 0.00 0.00 87 1007.3
20260505070004 15 346 1.6 8.0 0.00 0.00 0.00 85 1007.3
20260505065503 15 332 3.2 11.3 0.00 0.00 0.00 81 1007.2
20260505065003 16 320 3.2 11.3 0.00 0.00 0.00 77 1007.3
20260505064718 16 316 3.2 6.4 0.00 0.00 0.00 74 1007.6
20260505064004 16 318 3.2 6.4 0.00 0.00 0.00 72 1006.7
20260505063503 17 313 4.8 11.3 0.00 0.00 0.00 71 1006.6
20260505063003 17 318 6.4 17.7 0.00 0.00 0.00 70 1006.2
20260505062503 17 327 6.4 22.5 0.00 0.00 0.00 68 1005.7
20260505062003 18 328 8.0 33.8 0.00 0.00 0.00 66 1005.7
20260505061503 21 324 4.8 33.8 0.00 0.00 0.00 63 1005.3
20260505061004 21 270 1.6 8.0 0.00 0.00 0.00 59 1004.1
20260505060503 21 261 1.6 8.0 0.00 0.00 0.00 59 1003.4
20260505060004 21 256 1.6 8.0 0.00 0.00 0.00 59 1003.0
20260505055718 21 253 3.2 8.0 0.00 0.00 0.00 59 1002.9
20260505055003 21 227 3.2 9.7 0.00 0.00 0.00 58 1002.4
20260505054718 21 218 3.2 11.3 0.00 0.00 0.00 58 1002.4